Flag for Germany Weather past 2 weeks in Soltau, Lower Saxony, Germany

48 °F

Drizzle. Fog.

Feels Like: 45 °F
Forecast: 38 / 51 °F
Wind: 8 mph from East

Location: Fassberg

Current Time: Oct 9, 2015 at 11:07:59 AM

Latest Report: Oct 9, 2015 at 10:20 AM

Visibility: 2 mi

Pressure: 30.18 "Hg

Humidity: 100%

Dew point: 48 °F

Location of SoltauLocation

Historic Weather in Soltau — Graph


Soltau temperature yesterday

Maximum temperature yesterday: 59 °F (at 1:20 PM)
Minimum temperature yesterday: 52 °F (at 4:50 AM)
Average temperature yesterday: 56 °F

Past Weeks' High & Low Weather Summary

High68 °F (Oct 5, 3:20 PM)100% (Sep 25, 6:45 AM)30.69 "Hg (Sep 25, 6:45 AM)
Low32 °F (Oct 2, 3:20 AM)51% (Oct 1, 1:20 PM)29.71 "Hg (Oct 6, 10:20 AM)
Average50 °F85%30.22 "Hg
* Reported Sep 24 9:04 AM — Oct 9 9:20 AM, Soltau, Weather by CustomWeather, © 2015

Note: Actual official high and low records may vary slightly from our data, if they occured in-between our weather recording intervals... More about our weather records


Soltau weather history for previous 24 hours

Time TempWeatherWind HumidityBarometerVisibility
9:20 AM
Fri, Oct 9
48 °FLow clouds.6 mph100%30.15 "Hg1 mi
9:00 AM48 °FLow clouds.6 mph100%30.15 "Hg1 mi
8:20 AM48 °FFog.6 mph100%30.15 "Hg1 mi
8:04 AM48 °FFog.5 mph100%30.15 "Hg0 mi
7:58 AM48 °FFog.5 mph100%30.15 "Hg0 mi
7:20 AM48 °FFog.5 mph100%30.12 "Hg1 mi
6:20 AM50 °FFog.5 mph94%30.12 "Hg0 mi
5:48 AM50 °FFog.6 mph94%30.12 "Hg0 mi
5:20 AM50 °FFog.5 mph100%30.12 "Hg1 mi
4:20 AM50 °FFog.5 mph100%30.12 "Hg1 mi
3:20 AM50 °FFog.3 mph100%30.12 "Hg1 mi
2:20 AM52 °FFog.5 mph94%30.12 "Hg1 mi
1:20 AM52 °FPassing clouds.7 mph94%30.12 "Hg4 mi
12:45 AM52 °FPassing clouds.6 mph100%30.12 "Hg4 mi
12:20 AM54 °FLight rain. Fog.6 mph94%30.12 "Hg2 mi
12:02 AM54 °FDrizzle. Fog.5 mph100%30.12 "Hg2 mi
11:20 PM
Thu, Oct 8
55 °FPassing clouds.5 mph94%30.12 "Hg4 mi
10:20 PM57 °FRain. Fog.3 mph94%30.12 "Hg3 mi
9:20 PM57 °FFog.3 mph94%30.12 "Hg3 mi
8:20 PM57 °FPassing clouds.2 mph94%30.12 "Hg4 mi
7:47 PM57 °FFog.2 mph94%30.09 "Hg3 mi
7:20 PM57 °FFog.2 mph94%30.09 "Hg3 mi
6:20 PM57 °FBroken clouds.3 mph94%30.09 "Hg4 mi
6:00 PM57 °FBroken clouds.3 mph94%30.09 "Hg4 mi
5:20 PM57 °FPartly sunny.5 mph94%30.09 "HgN/A
4:20 PM59 °FDrizzle. Fog.5 mph94%30.09 "Hg3 mi
3:20 PM59 °FDrizzle. Fog.3 mph94%30.07 "Hg3 mi
2:20 PM59 °FFog.3 mph94%30.07 "Hg3 mi
1:20 PM59 °FFog.5 mph94%30.07 "Hg2 mi
12:20 PM57 °FDrizzle. Fog.5 mph94%30.07 "Hg2 mi
11:50 AM57 °FDrizzle. Fog.3 mph94%30.07 "Hg1 mi
11:20 AM57 °FDrizzle. Fog.3 mph94%30.07 "Hg1 mi
Weather by CustomWeather, © 2015

See weather overviewHow to use our weather pages